BWA419 TAPA-TBPB

Flight info

Callsign BWA419
Flight time 0h 49m
Altitude 35000
Route BORUS DCT OLIDO
Aircraft B38M/M-SDE1FGHILORVWXY/HB1

Departure

Time 2026-05-07 23:43
Airport V. C. Bird International Airport (TAPA)

Arrival

Time 2026-05-08 00:32
Airport Grantley Adams International Airport (TBPB)
Time Latitude Longitude Altitude Speed Heading
2026-05-07 23:17 17.14093 -61.79063 48 ft 0 kts 331°
2026-05-07 23:31 17.14083 -61.79057 47 ft 2 kts 331°
2026-05-07 23:31 17.14069 -61.79049 48 ft 2 kts 331°
2026-05-07 23:31 17.14055 -61.79041 48 ft 2 kts 331°
2026-05-07 23:32 17.14041 -61.79032 50 ft 2 kts 322°
2026-05-07 23:32 17.14030 -61.79020 45 ft 2 kts 290°
2026-05-07 23:32 17.14027 -61.79003 51 ft 2 kts 263°
2026-05-07 23:32 17.14032 -61.78988 47 ft 2 kts 240°
2026-05-07 23:33 17.14033 -61.78987 47 ft 0 kts 240°
2026-05-07 23:36 17.14032 -61.78988 47 ft 1 kts 240°
2026-05-07 23:37 17.14026 -61.78999 51 ft 3 kts 241°
2026-05-07 23:37 17.14013 -61.79022 51 ft 4 kts 241°
2026-05-07 23:37 17.13998 -61.79051 52 ft 5 kts 243°
2026-05-07 23:37 17.13975 -61.79089 51 ft 7 kts 234°
2026-05-07 23:38 17.13931 -61.79128 53 ft 9 kts 205°
2026-05-07 23:38 17.13864 -61.79122 53 ft 11 kts 152°
2026-05-07 23:38 17.13788 -61.79101 51 ft 12 kts 201°
2026-05-07 23:38 17.13736 -61.79170 54 ft 13 kts 238°
2026-05-07 23:39 17.13683 -61.79255 49 ft 15 kts 238°
2026-05-07 23:39 17.13624 -61.79350 54 ft 16 kts 237°
2026-05-07 23:39 17.13562 -61.79452 53 ft 17 kts 237°
2026-05-07 23:39 17.13497 -61.79563 53 ft 19 kts 238°
2026-05-07 23:40 17.13422 -61.79684 58 ft 20 kts 236°
2026-05-07 23:40 17.13345 -61.79813 59 ft 22 kts 239°
2026-05-07 23:40 17.13263 -61.79957 58 ft 24 kts 240°
2026-05-07 23:40 17.13170 -61.80112 58 ft 26 kts 237°
2026-05-07 23:41 17.13071 -61.80278 66 ft 27 kts 238°
2026-05-07 23:41 17.12966 -61.80441 71 ft 27 kts 226°
2026-05-07 23:41 17.12869 -61.80547 74 ft 13 kts 270°
2026-05-07 23:41 17.12886 -61.80563 72 ft 1 kts 10°
2026-05-07 23:42 17.12902 -61.80553 68 ft 4 kts 36°
2026-05-07 23:42 17.12928 -61.80519 70 ft 7 kts 57°
2026-05-07 23:42 17.12971 -61.80447 67 ft 24 kts 58°
2026-05-07 23:42 17.13214 -61.80040 58 ft 113 kts 57°
2026-05-07 23:43 17.13770 -61.79110 65 ft 181 kts 58°
2026-05-07 23:43 17.14469 -61.77946 536 ft 199 kts 58°
2026-05-07 23:43 17.15197 -61.76757 1087 ft 187 kts 59°
2026-05-07 23:43 17.15514 -61.75467 1773 ft 183 kts 90°
2026-05-07 23:44 17.15129 -61.74286 2434 ft 166 kts 124°
2026-05-07 23:44 17.14269 -61.73593 3050 ft 156 kts 147°
2026-05-07 23:44 17.13264 -61.73023 3392 ft 177 kts 148°
2026-05-07 23:44 17.12103 -61.72370 3806 ft 201 kts 149°
2026-05-07 23:45 17.10751 -61.71715 4290 ft 225 kts 153°
2026-05-07 23:45 17.09255 -61.71038 4838 ft 245 kts 154°
2026-05-07 23:45 17.07610 -61.70298 5388 ft 266 kts 154°
2026-05-07 23:45 17.05872 -61.69511 5935 ft 284 kts 154°
2026-05-07 23:46 17.04016 -61.68664 6644 ft 296 kts 154°
2026-05-07 23:46 17.02108 -61.67784 7307 ft 307 kts 154°
2026-05-07 23:46 17.00116 -61.66861 7984 ft 317 kts 156°
2026-05-07 23:46 16.97992 -61.66081 8675 ft 328 kts 161°
2026-05-07 23:47 16.95785 -61.65390 9358 ft 338 kts 163°
2026-05-07 23:47 16.93456 -61.64857 10048 ft 347 kts 170°
2026-05-07 23:47 16.91027 -61.64482 10644 ft 356 kts 172°
2026-05-07 23:47 16.88536 -61.64145 11255 ft 365 kts 173°
2026-05-07 23:48 16.86009 -61.63792 11853 ft 372 kts 170°
2026-05-07 23:48 16.83449 -61.63118 12479 ft 379 kts 160°
2026-05-07 23:48 16.81082 -61.61934 13107 ft 384 kts 149°
2026-05-07 23:48 16.78803 -61.60409 13755 ft 389 kts 146°
2026-05-07 23:49 16.76517 -61.58856 14342 ft 394 kts 148°
2026-05-07 23:49 16.74109 -61.57455 14925 ft 398 kts 152°
2026-05-07 23:49 16.71653 -61.56141 15513 ft 402 kts 152°
2026-05-07 23:49 16.69185 -61.54725 16112 ft 405 kts 150°
2026-05-07 23:50 16.66736 -61.53245 16725 ft 408 kts 149°
2026-05-07 23:50 16.64255 -61.51781 17355 ft 411 kts 150°
2026-05-07 23:50 16.61728 -61.50336 17885 ft 416 kts 151°
2026-05-07 23:50 16.59203 -61.48884 18380 ft 421 kts 150°
2026-05-07 23:51 16.56627 -61.47377 18832 ft 426 kts 150°
2026-05-07 23:51 16.54902 -61.46367 19136 ft 428 kts 150°
2026-05-07 23:51 16.51385 -61.44326 19761 ft 433 kts 151°
2026-05-07 23:51 16.48744 -61.42799 20231 ft 437 kts 151°
2026-05-07 23:52 16.46100 -61.41263 20706 ft 440 kts 151°
2026-05-07 23:52 16.43414 -61.39702 21198 ft 443 kts 151°
2026-05-07 23:52 16.40701 -61.38128 21674 ft 445 kts 151°
2026-05-07 23:52 16.38007 -61.36567 22181 ft 447 kts 151°
2026-05-07 23:53 16.35279 -61.34987 22694 ft 449 kts 151°
2026-05-07 23:53 16.32518 -61.33386 23212 ft 451 kts 152°
2026-05-07 23:53 16.29791 -61.31805 23714 ft 453 kts 152°
2026-05-07 23:53 16.27053 -61.30221 24136 ft 455 kts 152°
2026-05-07 23:54 16.24256 -61.28603 24581 ft 456 kts 152°
2026-05-07 23:54 16.21501 -61.27008 25024 ft 457 kts 153°
2026-05-07 23:54 16.18693 -61.25383 25484 ft 459 kts 153°
2026-05-07 23:54 16.15940 -61.23791 25936 ft 460 kts 153°
2026-05-07 23:55 16.13117 -61.22160 26412 ft 460 kts 153°
2026-05-07 23:55 16.10339 -61.20554 26897 ft 461 kts 153°
2026-05-07 23:55 16.07518 -61.18924 27373 ft 462 kts 153°
2026-05-07 23:55 16.04709 -61.17302 27874 ft 462 kts 153°
2026-05-07 23:56 16.01893 -61.15675 28390 ft 462 kts 153°
2026-05-07 23:56 15.99089 -61.14057 28898 ft 462 kts 153°
2026-05-07 23:56 15.96276 -61.12434 29425 ft 461 kts 153°
2026-05-07 23:56 15.93468 -61.10815 29937 ft 461 kts 153°
2026-05-07 23:57 15.90681 -61.09208 30234 ft 466 kts 153°
2026-05-07 23:57 15.87835 -61.07569 30434 ft 472 kts 153°
2026-05-07 23:57 15.84938 -61.05899 30644 ft 477 kts 153°
2026-05-07 23:57 15.82008 -61.04210 30869 ft 482 kts 153°
2026-05-07 23:58 15.79051 -61.02507 31080 ft 487 kts 154°
2026-05-07 23:58 15.76112 -61.00816 31299 ft 489 kts 154°
2026-05-07 23:58 15.73123 -60.99095 31509 ft 487 kts 154°
2026-05-07 23:58 15.70151 -60.97385 31724 ft 486 kts 154°
2026-05-07 23:59 15.67222 -60.95701 31925 ft 486 kts 154°
2026-05-07 23:59 15.64266 -60.94002 32151 ft 485 kts 154°
2026-05-07 23:59 15.61313 -60.92303 32354 ft 484 kts 154°
2026-05-07 23:59 15.58358 -60.90604 32572 ft 483 kts 154°
2026-05-08 00:00 15.55416 -60.88913 32791 ft 482 kts 154°
2026-05-08 00:00 15.52514 -60.87248 33007 ft 481 kts 154°
2026-05-08 00:00 15.49594 -60.85571 33226 ft 480 kts 154°
2026-05-08 00:00 15.46655 -60.83884 33452 ft 479 kts 154°
2026-05-08 00:01 15.43732 -60.82206 33681 ft 479 kts 154°
2026-05-08 00:01 15.40818 -60.80535 33911 ft 478 kts 154°
2026-05-08 00:01 15.37948 -60.78889 34119 ft 477 kts 154°
2026-05-08 00:01 15.35028 -60.77215 34312 ft 476 kts 154°
2026-05-08 00:02 15.32164 -60.75574 34458 ft 475 kts 154°
2026-05-08 00:02 15.29232 -60.73894 34616 ft 474 kts 154°
2026-05-08 00:02 15.26369 -60.72254 34743 ft 473 kts 155°
2026-05-08 00:02 15.23490 -60.70606 34924 ft 472 kts 155°
2026-05-08 00:03 15.20609 -60.68957 35032 ft 472 kts 155°
2026-05-08 00:03 15.17723 -60.67306 35024 ft 472 kts 155°
2026-05-08 00:03 15.12015 -60.64042 35029 ft 471 kts 155°
2026-05-08 00:04 15.06262 -60.60753 35024 ft 471 kts 155°
2026-05-08 00:04 15.00580 -60.57506 35024 ft 466 kts 155°
2026-05-08 00:05 14.94896 -60.54264 35008 ft 465 kts 155°
2026-05-08 00:05 14.89270 -60.51052 35016 ft 460 kts 155°
2026-05-08 00:06 14.84654 -60.48418 35019 ft 449 kts 156°
2026-05-08 00:06 14.78310 -60.44807 35017 ft 445 kts 156°
2026-05-08 00:07 14.72902 -60.41726 34722 ft 443 kts 156°
2026-05-08 00:07 14.71105 -60.40702 34512 ft 440 kts 156°
2026-05-08 00:07 14.68445 -60.39188 34189 ft 437 kts 155°
2026-05-08 00:08 14.65776 -60.37670 33828 ft 436 kts 155°
2026-05-08 00:08 14.63151 -60.36178 33479 ft 435 kts 155°
2026-05-08 00:08 14.60501 -60.34670 33116 ft 435 kts 156°
2026-05-08 00:08 14.57848 -60.33160 32721 ft 430 kts 156°
2026-05-08 00:09 14.55231 -60.31672 32297 ft 425 kts 156°
2026-05-08 00:09 14.52686 -60.30227 31871 ft 421 kts 156°
2026-05-08 00:09 14.50134 -60.28778 31471 ft 416 kts 156°
2026-05-08 00:09 14.47597 -60.27337 31069 ft 412 kts 156°
2026-05-08 00:10 14.45096 -60.25917 30661 ft 408 kts 156°
2026-05-08 00:10 14.42605 -60.24503 30265 ft 404 kts 156°
2026-05-08 00:10 14.40178 -60.23126 29832 ft 401 kts 156°
2026-05-08 00:10 14.37743 -60.21745 29380 ft 398 kts 156°
2026-05-08 00:11 14.35259 -60.20526 28957 ft 391 kts 163°
2026-05-08 00:11 14.32705 -60.19536 28484 ft 391 kts 164°
2026-05-08 00:11 14.30175 -60.18579 28074 ft 392 kts 163°
2026-05-08 00:11 14.27610 -60.17574 27643 ft 393 kts 163°
2026-05-08 00:12 14.25052 -60.16555 27227 ft 393 kts 163°
2026-05-08 00:12 14.22525 -60.15562 26832 ft 394 kts 163°
2026-05-08 00:12 14.19948 -60.14561 26427 ft 395 kts 163°
2026-05-08 00:12 14.17377 -60.13558 26033 ft 397 kts 163°
2026-05-08 00:13 14.14795 -60.12544 25645 ft 398 kts 162°
2026-05-08 00:13 14.12192 -60.11523 25260 ft 400 kts 162°
2026-05-08 00:13 14.09585 -60.10504 24882 ft 396 kts 162°
2026-05-08 00:13 14.07017 -60.09500 24492 ft 391 kts 162°
2026-05-08 00:14 14.04508 -60.08519 24114 ft 387 kts 162°
2026-05-08 00:14 14.02000 -60.07539 23738 ft 383 kts 161°
2026-05-08 00:14 13.99504 -60.06563 23314 ft 380 kts 161°
2026-05-08 00:14 13.97040 -60.05601 22867 ft 377 kts 161°
2026-05-08 00:15 13.94624 -60.04657 22424 ft 374 kts 161°
2026-05-08 00:15 13.92187 -60.03705 21996 ft 371 kts 161°
2026-05-08 00:15 13.89773 -60.02763 21572 ft 368 kts 161°
2026-05-08 00:15 13.87408 -60.01840 21159 ft 366 kts 161°
2026-05-08 00:16 13.85027 -60.00910 20740 ft 364 kts 161°
2026-05-08 00:16 13.82685 -59.99997 20337 ft 361 kts 161°
2026-05-08 00:16 13.80319 -59.99074 19932 ft 360 kts 161°
2026-05-08 00:16 13.77990 -59.98166 19536 ft 359 kts 160°
2026-05-08 00:17 13.75676 -59.97264 19149 ft 356 kts 160°
2026-05-08 00:17 13.73357 -59.96359 18764 ft 355 kts 159°
2026-05-08 00:17 13.71037 -59.95455 18391 ft 353 kts 159°
2026-05-08 00:17 13.68733 -59.94557 17954 ft 352 kts 159°
2026-05-08 00:18 13.66460 -59.93671 17529 ft 350 kts 159°
2026-05-08 00:18 13.64194 -59.92789 17100 ft 349 kts 159°
2026-05-08 00:18 13.61987 -59.91931 16610 ft 327 kts 158°
2026-05-08 00:18 13.59946 -59.91138 16144 ft 307 kts 158°
2026-05-08 00:19 13.57971 -59.90369 15686 ft 299 kts 158°
2026-05-08 00:19 13.56063 -59.89625 15232 ft 285 kts 158°
2026-05-08 00:19 13.54230 -59.88911 14795 ft 276 kts 157°
2026-05-08 00:19 13.52463 -59.88223 14367 ft 276 kts 157°
2026-05-08 00:20 13.50654 -59.87519 13969 ft 276 kts 157°
2026-05-08 00:20 13.48842 -59.86814 13543 ft 278 kts 157°
2026-05-08 00:20 13.47055 -59.86119 13113 ft 276 kts 157°
2026-05-08 00:20 13.45271 -59.85426 12681 ft 269 kts 157°
2026-05-08 00:21 13.43542 -59.84755 12247 ft 261 kts 157°
2026-05-08 00:21 13.41842 -59.84093 11824 ft 262 kts 157°
2026-05-08 00:21 13.40148 -59.83433 11414 ft 261 kts 158°
2026-05-08 00:21 13.38441 -59.82770 11008 ft 263 kts 157°
2026-05-08 00:22 13.36734 -59.82107 10609 ft 262 kts 158°
2026-05-08 00:22 13.35022 -59.81442 10222 ft 263 kts 157°
2026-05-08 00:22 13.33328 -59.80784 9837 ft 261 kts 158°
2026-05-08 00:22 13.31608 -59.80116 9423 ft 263 kts 158°
2026-05-08 00:23 13.29909 -59.79456 8996 ft 259 kts 158°
2026-05-08 00:23 13.28175 -59.78783 8594 ft 267 kts 158°
2026-05-08 00:23 13.26489 -59.78128 8180 ft 259 kts 158°
2026-05-08 00:23 13.24775 -59.77464 7793 ft 268 kts 158°
2026-05-08 00:24 13.22908 -59.76736 7470 ft 306 kts 159°
2026-05-08 00:24 13.20836 -59.75931 7144 ft 319 kts 159°
2026-05-08 00:24 13.18766 -59.75130 6794 ft 314 kts 159°
2026-05-08 00:24 13.16845 -59.74388 6373 ft 285 kts 159°
2026-05-08 00:25 13.15081 -59.73705 5972 ft 248 kts 159°
2026-05-08 00:25 13.13499 -59.73091 5592 ft 243 kts 158°
2026-05-08 00:25 13.11987 -59.72504 5192 ft 222 kts 158°
2026-05-08 00:25 13.10610 -59.71972 4751 ft 200 kts 157°
2026-05-08 00:26 13.09373 -59.71494 4317 ft 182 kts 155°
2026-05-08 00:26 13.08199 -59.71037 4022 ft 181 kts 155°
2026-05-08 00:26 13.06977 -59.70559 3775 ft 188 kts 155°
2026-05-08 00:26 13.05801 -59.70105 3511 ft 178 kts 155°
2026-05-08 00:27 13.04649 -59.69659 3291 ft 174 kts 155°
2026-05-08 00:27 13.03550 -59.69145 3081 ft 171 kts 138°
2026-05-08 00:27 13.02873 -59.68194 2908 ft 162 kts 103°
2026-05-08 00:27 13.02862 -59.67093 2741 ft 157 kts 73°
2026-05-08 00:28 13.03207 -59.66026 2544 ft 158 kts 70°
2026-05-08 00:28 13.03562 -59.64951 2364 ft 156 kts 71°
2026-05-08 00:28 13.03853 -59.63890 2203 ft 157 kts 72°
2026-05-08 00:28 13.04128 -59.62797 2060 ft 154 kts 74°
2026-05-08 00:29 13.04389 -59.61728 2003 ft 155 kts 73°
2026-05-08 00:29 13.04661 -59.60628 2004 ft 160 kts 73°
2026-05-08 00:29 13.04930 -59.59533 1995 ft 157 kts 73°
2026-05-08 00:29 13.05180 -59.58514 1872 ft 138 kts 75°
2026-05-08 00:30 13.05366 -59.57579 1688 ft 137 kts 78°
2026-05-08 00:30 13.05531 -59.56622 1566 ft 135 kts 78°
2026-05-08 00:30 13.05736 -59.55696 1348 ft 129 kts 72°
2026-05-08 00:30 13.05960 -59.54826 1131 ft 124 kts 72°
2026-05-08 00:31 13.06187 -59.53959 903 ft 127 kts 73°
2026-05-08 00:31 13.06425 -59.53097 833 ft 127 kts 75°
2026-05-08 00:31 13.06679 -59.52230 674 ft 129 kts 73°
2026-05-08 00:31 13.06936 -59.51299 384 ft 138 kts 76°
2026-05-08 00:32 13.07189 -59.50327 206 ft 143 kts 76°
2026-05-08 00:32 13.07407 -59.49431 176 ft 108 kts 76°
2026-05-08 00:32 13.07547 -59.48888 175 ft 54 kts 75°
2026-05-08 00:32 13.07621 -59.48563 174 ft 40 kts 76°
2026-05-08 00:33 13.07686 -59.48356 173 ft 16 kts 50°
2026-05-08 00:33 13.07746 -59.48344 173 ft 5 kts 352°
2026-05-08 00:33 13.07787 -59.48353 175 ft 7 kts 345°
2026-05-08 00:33 13.07838 -59.48377 176 ft 9 kts 315°
2026-05-08 00:34 13.07847 -59.48454 177 ft 14 kts 256°
2026-05-08 00:34 13.07819 -59.48565 177 ft 18 kts 256°
2026-05-08 00:34 13.07786 -59.48701 177 ft 20 kts 253°
2026-05-08 00:34 13.07755 -59.48791 177 ft 5 kts 291°
2026-05-08 00:35 13.07763 -59.48795 177 ft 0 kts 341°
2026-05-08 00:35 13.07786 -59.48798 177 ft 6 kts 354°
2026-05-08 00:35 13.07836 -59.48808 177 ft 6 kts 347°
2026-05-08 00:35 13.07863 -59.48815 177 ft 0 kts 347°